Other Surface Observations
Issued by NWS

Home | Current Version | Previous Version | Text Only | Print | Product List | Glossary On
Versions: 1 2 3 4 5 6 7 8 9 10 11 12 13 14 15 16 17 18 19 20 21 22 23 24 25 26 27 28 29 30 31 32 33 34 35 36 37 38 39 40 41 42 43 44 45 46 47 48 49 50
000
SXUS52 KTAE 220818
OSOTAE
OSOTAE
North Florida/South Alabama/Southwest Georgia Weather Roundup
National Weather Service Tallahassee Florida
300 AM EST WED NOV 22 2017

Note: "fair" indicates few or no clouds below 12,000 feet with no
significant weather and/or obstructions to visibility.

!FLZ017-115-028-034-025-220900
...North Florida...

CITY           SKY/WX    TMP DP  RH WIND       PRES   REMARKS
TALLAHASSEE    MOCLDY    58  58 100 CALM      29.97S
APALACHICOLA   MOCLDY    61  61 100 NE6       29.95S
PERRY          CLEAR     60  59  97 CALM      29.96S
CROSS CITY     FOG       59  61 100 CALM      30.00S VSB 3/4
JACKSONVILLE   CLOUDY    61  60  97 NW3       29.95S
$$

!FLZ112-006-005-002-011-220900
...Florida Panhandle...

CITY           SKY/WX    TMP DP  RH WIND       PRES   REMARKS
MARIANNA       CLOUDY    61  61 100 CALM      29.97F FOG
BONIFAY        NOT AVBL
PANAMA CITY NW CLOUDY    62  60  93 N3        29.95F
TYNDALL AFB    CLOUDY    63  61  94 N3        29.95F
TYND DRONE APT PTSUNNY   63  61  94 N7        29.95F
DE FUNIAK SPR  CLOUDY    56  52  85 N9        29.99F
EGLIN AFB      CLOUDY    59  48  67 N9        29.98R
DESTIN         CLOUDY    62  53  72 N10       29.97F
HURLBURT       CLOUDY    59  50  71 N12       29.97S
CRESTVIEW      CLOUDY    58  47  66 NE6       30.01S
PENSACOLA      CLOUDY    57  46  66 N10       30.00S
$$

!ALZ063-066-220900
...South Alabama...

CITY           SKY/WX    TMP DP  RH WIND       PRES   REMARKS
DOTHAN         CLOUDY    57  57 100 NW7       30.02S
OZARK CAIRNS   CLOUDY    57  54  88 NW7       29.99F
FT RUCKER HELI CLOUDY    56  56  97 CALM      30.00S
RUCKER HELI 3    N/A     58  51  77 N6        30.00R
RUCKER HELI 2  CLOUDY    57  55  92 NW6       29.99R
FLORALA APT    CLOUDY    57  45  64 N5        30.02F
ANDALUSIA      CLOUDY    60  41  49 N6        30.00S
TROY           CLOUDY    55  43  63 NE6       30.01F
EUFALA         MOCLDY    57  56  96 N3        29.98F
MOBILE         CLOUDY    55  46  71 N9        30.03S
$$

!GAZ120>161-220900
...Southwest and South Central Georgia...

CITY           SKY/WX    TMP DP  RH WIND       PRES   REMARKS
THOMASVILLE    CLOUDY    61  61 100 CALM      29.98S
BAINBRIDGE     CLOUDY    61  61 100 N3        29.98S
MOODY AFB      FOG       59  59 100 CALM      29.96S VSB 5/8
VALDOSTA       FOG       60  60 100 CALM      29.97S VSB 1/2
MOULTRIE       FOG       59  59 100 CALM      29.99R VSB 1
BLAKELY        CLOUDY    54  52  94 CALM      30.00S
ALBANY         PTCLDY    52  51  97 CALM      29.96S FOG
TIFTON         CLOUDY   N/A N/A N/A CALM      29.98R FOG
FITZGERALD     FOG       54  54 100 CALM      30.00R VSB 1/4
CORDELE        FAIR      55  53  92 CALM      29.99F
AMERICUS       FOG       50  46  87 CALM      30.01S VSB 1/4
HOMERVILLE     CLOUDY    59  59 100 CALM      29.98R
$$

!GMZ750-755-770-775-220900
...Coastal and Buoy Obs...

STATION/POSITION TIME  TEMP    WIND        PRES    VSBY  WAVE
                       AIR SEA DIR/SP/G                  HT/PER
                 (UTC) (F)     (DEG/KT/KT) (MB)    (MI)  (FT/S)
KEATON BEACH     0800   61     100/  8/  9 1013.8S
CEDAR KEY        0800   63      80/ 10/ 12 1014.2F
C TOWER          0800   69     110/ 12/ 13 1014.0F
APALACHICOLA BUO NOT AVBL
PANAMA CITY BUOY 0750   71 77  360/ 12/ 14 1012.8F         3/ 6
MOBILE BUOY      0800   69 78   10/ 16/ 17 1014.9
ORANGE BCH AL BU NOT AVBL
$$




USA.gov is the U.S. government's official web portal to all federal, state and local government web resources and services.